www.pogodaiklimat.ru

Погода и климат >> Архив погоды >> Великобритания >> Портгленон


ПОГОДА в Портгленоне

  • Прогноз погоды в Портгленоне
  • Монитор погоды в Портгленоне

АРХИВ ПОГОДЫ в Портгленоне

Время (UTC), дата Ветер
(напр.,м/с)
 
Видим.   Явления Облачность Т
(С)
Тd
(С)
f
(%)
Тe
(С)
Тes
(С)
Комфортность P
(гПа)
Po
(гПа)
Тmin
(С)
Tmax
(С)
R
(мм)
R24
(мм)
S
(см)
16 18.06 З 3 35 км н/о +16.4 +11.3 72 +16 +16 1009.8 1002.2
17 18.06 З 3 40 км н/о +16.2 +9.9 66 +16 +16 1009.6 1002.0
18 18.06 З 3 30 км н/о +15.9 +10.4 70 +15 +15 1009.6 1002.0 +17.1 0.0
19 18.06 ЮЗ 3 45 км н/о +16.1 +9.2 64 +16 +16 1009.5 1001.9
20 18.06 З 2 50 км н/о +14.7 +9.8 72 +14 +14 1009.5 1001.9
21 18.06 ЮЗ 1 35 км н/о +13.5 +8.7 73 +14 +14 1009.6 1002.0
22 18.06 ЮЗ 2 35 км н/о +12.6 +8.9 78 +12 +12 1009.7 1002.0
23 18.06 Ю 1 28 км н/о +10.1 +7.6 84 +10 +10 1009.5 1001.7
00 19.06 Ю 2 35 км н/о +10.0 +8.5 90 +9 +9 1009.3 1001.5
01 19.06 ЮВ 1 27 км н/о +9.0 +7.9 93 +8 +8 1008.9 1001.1
02 19.06 ЮВ 2 22 км н/о +8.2 +7.4 95 +7 +7 1008.6 1000.8
03 19.06 Ю 2 17 км н/о +7.4 +6.8 96 +5 +5 1008.5 1000.6
04 19.06 ЮВ 2 18 км н/о +8.6 +8.4 99 +6 +6 1008.1 1000.3
05 19.06 ЮВ 3 19 км н/о +9.1 +8.7 97 +7 +7 1007.8 1000.0
06 19.06 Ю 2 10 км н/о +10.1 +9.6 97 +9 +9 1007.9 1000.2 +7.3
07 19.06 ЮВ 3 19 км н/о +11.0 +9.8 92 +9 +9 1007.8 1000.1
08 19.06 Ю 4 29 км н/о +12.2 +10.6 90 +10 +10 1007.6 999.9
09 19.06 Ю 3 40 км н/о +13.7 +10.6 82 +13 +13 1007.0 999.4
10 19.06 ЮЗ 4 35 км н/о +14.7 +10.0 73 +13 +13 1006.9 999.3
11 19.06 ЮЗ 5 35 км н/о +14.4 +9.3 71 +13 +13 1006.9 999.3
12 19.06 ЮЗ 4 45 км н/о +15.5 +9.6 68 +15 +15 1006.6 999.0
13 19.06 З 3 30 км н/о +15.9 +10.2 69 +16 +16 1006.4 998.9
14 19.06 ЮЗ 4 35 км н/о +15.9 +8.4 61 +15 +15 1006.2 998.7
15 19.06 ЮЗ 4 50 км н/о +17.6 +10.1 61 +17 +17 1005.8 998.2
16 19.06 ЮЗ 3 45 км в посл. час дождь н/о +15.3 +11.8 80 +15 +15 1005.7 998.1
17 19.06 ЮЗ 4 45 км в посл. час дождь н/о +14.6 +10.0 74 +14 +14 1005.7 998.1
18 19.06 Ю 1 50 км в посл. час дождь н/о +13.6 +10.5 82 +14 +14 1005.7 998.0 +17.6 1
19 19.06 ЮЗ 2 13 км ливневой дождь н/о +12.2 +10.7 91 +11 +11 1005.8 998.2
20 19.06 ЮЗ 2 8000 м дождь н/о +11.7 +10.9 95 +11 +11 1005.9 998.2
21 19.06 З 2 16 км дождь н/о +10.4 +9.5 94 +9 +9 1006.2 998.5
22 19.06 З 2 35 км в посл. час дождь н/о +9.9 +8.9 93 +8 +8 1006.3 998.5
23 19.06 В 1 21 км н/о +9.3 +8.7 96 +9 +9 1006.5 998.7
00 20.06 Ю 2 35 км н/о +8.0 +7.3 95 +6 +6 1006.6 998.8 3
01 20.06 ЮВ 1 30 км н/о +7.6 +7.2 97 +6 +6 1006.7 998.9
02 20.06 Ю 2 24 км н/о +6.7 +6.1 96 +5 +5 1006.8 999.0
03 20.06 Ю 2 16 км н/о +6.5 +6.2 98 +4 +4 1006.9 999.1
04 20.06 ЮВ 2 15 км н/о +6.5 +6.3 99 +4 +4 1007.1 999.2
05 20.06 ЮВ 2 17 км н/о +6.8 +6.7 99 +5 +5 1007.3 999.4
06 20.06 Ю 3 24 км н/о +8.1 +7.8 98 +5 +5 1007.3 999.5 +6.2 4
07 20.06 ЮЗ 2 35 км н/о +9.9 +8.8 93 +8 +8 1007.4 999.7
08 20.06 З 4 29 км н/о +11.5 +8.5 82 +9 +9 1007.8 1000.1
09 20.06 З 5 45 км н/о +11.4 +7.2 75 +9 +9 1008.2 1000.4
10 20.06 З 3 40 км слаб. ливневой дождь н/о +11.7 +7.7 76 +10 +10 1008.5 1000.7
11 20.06 З 3 45 км в посл. час дождь н/о +12.5 +7.6 72 +11 +11 1008.7 1001.0
12 20.06 З 3 35 км в посл. час дождь н/о +13.4 +8.6 73 +12 +12 1009.0 1001.4 0.0
13 20.06 З 3 45 км н/о +12.6 +7.6 72 +11 +11 1009.6 1001.9
14 20.06 СЗ 4 50 км в посл. час дождь н/о +11.6 +7.7 77 +10 +10 1010.0 1002.3
15 20.06 СЗ 3 40 км н/о +13.2 +7.8 70 +12 +12 1010.0 1002.4
16 20.06 З 2 30 км в посл. час дождь н/о +13.2 +9.4 78 +13 +13 1010.1 1002.4
17 20.06 СЗ 2 24 км в посл. час дождь н/о +12.6 +10.4 86 +12 +12 1010.2 1002.6
18 20.06 С 1 45 км в посл. час дождь н/о +11.7 +8.8 82 +12 +12 1010.6 1002.9 +15.1 0.8
19 20.06 С 2 35 км в посл. час дождь н/о +11.3 +9.3 87 +10 +10 1010.8 1003.1
20 20.06 С 2 50 км в посл. час дождь н/о +10.0 +8.4 90 +9 +9 1011.4 1003.6
21 20.06 СВ 2 35 км н/о +9.0 +8.1 94 +8 +8 1011.9 1004.1
22 20.06 С 1 20 км ливневой дождь н/о +9.0 +8.5 97 +8 +8 1012.2 1004.4
23 20.06 Ю 1 27 км в посл. час дождь н/о +7.6 +6.7 94 +7 +7 1012.9 1005.1
00 21.06 Ю 1 30 км н/о +6.8 +6.1 95 +6 +6 1013.3 1005.4 0.6
01 21.06 ЮВ 1 35 км н/о +6.3 +5.6 95 +5 +5 1013.5 1005.6
02 21.06 З 1 30 км н/о +5.6 +5.0 96 +4 +4 1013.9 1005.9
03 21.06 З 1 35 км н/о +6.1 +5.5 96 +5 +5 1014.1 1006.2
04 21.06 З 1 45 км н/о +5.7 +5.3 97 +4 +4 1014.6 1006.7
05 21.06 З 2 35 км н/о +6.7 +6.5 99 +5 +5 1015.1 1007.2
06 21.06 З 2 30 км н/о +8.3 +7.6 95 +7 +7 1015.7 1007.8 +5.3 0.6
07 21.06 З 2 30 км н/о +10.6 +8.0 84 +9 +9 1016.1 1008.3
08 21.06 СЗ 3 35 км н/о +12.6 +8.5 76 +11 +11 1016.6 1008.9
09 21.06 СЗ 3 45 км н/о +12.5 +7.8 73 +11 +11 1017.0 1009.3
10 21.06 З 3 40 км н/о +13.8 +7.2 64 +13 +13 1017.4 1009.6
11 21.06 СЗ 4 35 км н/о +14.7 +6.4 57 +14 +14 1017.8 1010.1
12 21.06 СЗ 3 29 км н/о +15.2 +6.6 56 +15 +15 1018.1 1010.4
13 21.06 С 3 20 км н/о +16.4 +9.0 62 +16 +16 1018.5 1010.9
14 21.06 СЗ 3 45 км н/о +14.2 +6.8 61 +14 +14 1019.0 1011.3
15 21.06 С 2 16 км в посл. час дождь н/о +16.2 +8.3 59 +16 +16 1018.9 1011.3
16 21.06 СВ 1 30 км н/о +14.7 +7.6 62 +15 +15 1019.1 1011.4
17 21.06 В 3 27 км в посл. час дождь н/о +14.3 +8.9 70 +14 +14 1019.3 1011.6
18 21.06 В 3 26 км н/о +13.3 +8.4 72 +12 +12 1019.4 1011.7 +16.5 0.0
19 21.06 В 3 30 км н/о +12.5 +8.0 74 +11 +11 1019.3 1011.6
20 21.06 В 3 35 км н/о +11.7 +7.4 75 +10 +10 1019.5 1011.7
21 21.06 В 4 30 км н/о +11.3 +7.4 77 +9 +9 1019.6 1011.8
22 21.06 В 4 35 км н/о +11.0 +7.5 79 +9 +9 1020.0 1012.1
23 21.06 ЮВ 3 40 км н/о +10.7 +7.5 81 +9 +9 1020.0 1012.1
00 22.06 ЮВ 4 45 км н/о +10.3 +7.6 83 +8 +8 1020.0 1012.1
01 22.06 ЮВ 3 26 км н/о +9.7 +7.5 86 +7 +7 1019.8 1012.0
02 22.06 ЮВ 3 30 км н/о +9.9 +8.1 89 +8 +8 1019.6 1011.8
03 22.06 ЮВ 3 30 км н/о +10.5 +8.4 87 +8 +8 1019.5 1011.7
04 22.06 ЮВ 3 26 км н/о +10.3 +8.3 87 +8 +8 1019.3 1011.5
05 22.06 ЮВ 3 35 км н/о +10.7 +9.3 91 +9 +9 1019.5 1011.7
06 22.06 ЮВ 3 24 км н/о +11.4 +9.7 89 +9 +9 1019.6 1011.8 +9.4
07 22.06 Ю 4 35 км н/о +12.1 +9.7 85 +10 +10 1019.6 1011.9
08 22.06 Ю 5 24 км н/о +13.0 +10.4 84 +11 +11 1019.6 1011.9
09 22.06 Ю 5 30 км н/о +12.9 +10.4 85 +11 +11 1019.7 1011.9
10 22.06 Ю 5 35 км н/о +14.2 +11.4 83 +13 +13 1019.5 1011.8
11 22.06 Ю 5 30 км н/о +15.4 +10.5 73 +14 +14 1019.5 1011.8
12 22.06 Ю 4 29 км н/о +16.4 +11.0 70 +16 +16 1019.5 1011.8
13 22.06 Ю 3 23 км н/о +17.7 +12.0 69 +18 +18 1019.0 1011.4
14 22.06 ЮВ 5 45 км н/о +16.8 +10.4 66 +16 +16 1018.8 1011.2
15 22.06 ЮВ 5 40 км н/о +19.0 +11.8 63 +20 +20 1018.4 1010.8
16 22.06 ЮВ 5 35 км н/о +17.6 +9.6 59 +17 +17 1018.1 1010.5
17 22.06 ЮВ 5 30 км н/о +17.3 +8.5 56 +17 +17 1018.0 1010.4
18 22.06 В 4 25 км н/о +17.7 +8.6 55 +17 +17 1017.8 1010.1 +19.0
19 22.06 ЮВ 3 35 км н/о +15.6 +7.8 60 +15 +15 1017.8 1010.2
20 22.06 ЮВ 3 50 км н/о +14.2 +7.0 62 +13 +13 1018.0 1010.3
21 22.06 ЮВ 2 35 км н/о +13.7 +7.0 64 +13 +13 1018.2 1010.5
22 22.06 штиль 0 40 км н/о +11.4 +6.7 73 +11 +11 1018.3 1010.5
23 22.06 С 1 40 км н/о +9.6 +6.5 81 +9 +9 1018.6 1010.8
00 23.06 З 1 45 км н/о +10.0 +7.0 82 +10 +10 1018.3 1010.5
01 23.06 ЮЗ 2 45 км н/о +11.2 +6.5 73 +10 +10 1018.1 1010.3
02 23.06 В 3 45 км н/о +12.4 +7.4 72 +11 +11 1017.5 1009.7
03 23.06 СЗ 1 40 км н/о +12.0 +7.3 73 +12 +12 1017.4 1009.7
04 23.06 СЗ 2 45 км н/о +12.0 +7.1 72 +11 +11 1017.0 1009.2
05 23.06 СЗ 2 45 км н/о +12.2 +8.1 76 +12 +12 1017.1 1009.4
06 23.06 В 3 35 км н/о +13.3 +8.8 74 +12 +12 1016.8 1009.1 +9.5
07 23.06 З 2 45 км н/о +14.6 +10.4 76 +14 +14 1017.0 1009.3
08 23.06 В 3 35 км н/о +15.3 +11.6 79 +15 +15 1016.9 1009.2
09 23.06 В 4 27 км н/о +17.0 +12.4 74 +17 +17 1017.1 1009.5
10 23.06 В 5 22 км н/о +17.2 +12.4 73 +17 +17 1017.2 1009.5
11 23.06 ЮВ 4 30 км н/о +17.8 +12.3 70 +18 +18 1017.2 1009.6
12 23.06 ЮВ 6 35 км н/о +18.6 +10.7 60 +19 +19 1017.1 1009.6
13 23.06 В 5 30 км н/о +17.7 +8.5 55 +17 +17 1017.2 1009.6
14 23.06 ЮВ 5 35 км н/о +18.0 +9.8 59 +18 +18 1017.1 1009.5
15 23.06 В 4 29 км н/о +17.0 +9.6 62 +17 +17 1017.4 1009.8
16 23.06 ЮВ 4 35 км н/о +17.0 +10.6 66 +17 +17 1017.2 1009.6
17 23.06 ЮВ 3 26 км н/о +16.5 +10.9 69 +16 +16 1016.9 1009.3
18 23.06 ЮВ 3 27 км н/о +16.3 +11.2 72 +16 +16 1016.7 1009.0 +19.0
19 23.06 В 2 35 км н/о +16.7 +11.1 70 +17 +17 1016.8 1009.1
20 23.06 В 2 30 км н/о +16.3 +11.0 71 +16 +16 1016.8 1009.1
21 23.06 В 3 40 км в посл. час дождь н/о +15.5 +10.7 73 +15 +15 1017.0 1009.3
22 23.06 В 3 35 км в посл. час дождь н/о +14.9 +10.2 73 +14 +14 1017.0 1009.3
23 23.06 В 3 30 км слаб. ливневой дождь н/о +13.8 +10.2 79 +13 +13 1017.2 1009.5
00 24.06 В 3 35 км в посл. час дождь н/о +13.4 +9.8 79 +12 +12 1017.4 1009.7 0.0
01 24.06 В 2 20 км ливневой дождь н/о +12.4 +10.3 87 +11 +11 1017.0 1009.2
02 24.06 В 3 8000 м дождь н/о +11.4 +10.5 94 +10 +10 1016.3 1008.5
03 24.06 В 2 13 км слаб. дождь н/о +11.5 +10.7 95 +11 +11 1016.2 1008.5
04 24.06 СВ 2 17 км в посл. час дождь н/о +11.7 +10.8 94 +11 +11 1016.1 1008.3
05 24.06 СВ 1 22 км н/о +11.8 +11.0 95 +12 +12 1016.0 1008.3
06 24.06 С 1 16 км н/о +12.2 +11.6 96 +13 +13 1016.0 1008.2 +11.3 2
07 24.06 СВ 2 18 км н/о +13.1 +12.3 95 +13 +13 1016.0 1008.3
08 24.06 СЗ 1 30 км н/о +14.0 +12.5 91 +14 +14 1016.2 1008.5
09 24.06 СЗ 1 24 км н/о +14.2 +12.8 91 +14 +14 1016.7 1009.0
10 24.06 С 1 27 км н/о +14.6 +12.8 89 +15 +15 1016.9 1009.2
11 24.06 С 2 30 км н/о +15.2 +13.3 88 +15 +15 1017.1 1009.4
12 24.06 С 1 30 км н/о +15.6 +13.2 86 +16 +16 1017.4 1009.8
13 24.06 В 2 22 км н/о +16.7 +13.7 82 +17 +17 1017.3 1009.7
14 24.06 С 1 27 км н/о +17.3 +13.8 80 +18 +18 1017.2 1009.6
15 24.06 СЗ 2 22 км н/о +16.4 +13.9 85 +17 +17 1017.6 1009.9
16 24.06 В 2 23 км н/о +15.6 +13.5 87 +16 +16 1017.6 1009.9
17 24.06 В 1 17 км н/о +15.9 +13.9 88 +17 +17 1018.0 1010.3
18 24.06 СЗ 1 18 км н/о +16.4 +13.9 85 +17 +17 1018.1 1010.4 +17.6
19 24.06 СЗ 3 17 км н/о +16.8 +14.0 84 +17 +17 1018.3 1010.6
20 24.06 СЗ 3 17 км н/о +14.9 +12.9 88 +14 +14 1019.1 1011.4
21 24.06 СЗ 2 13 км н/о +13.3 +12.4 94 +12 +12 1019.4 1011.6
22 24.06 СЗ 2 8000 м дымка н/о +12.0 +11.3 95 +11 +11 1020.3 1012.5
23 24.06 С 2 10 км н/о +12.5 +12.2 98 +11 +11 1020.5 1012.7
00 25.06 СЗ 2 12 км н/о +12.6 +12.2 97 +12 +12 1020.6 1012.8
01 25.06 СЗ 2 17 км н/о +12.7 +12.2 97 +12 +12 1020.4 1012.7
02 25.06 СЗ 2 15 км н/о +12.6 +12.2 97 +12 +12 1020.7 1012.9
03 25.06 СЗ 2 14 км н/о +12.7 +12.2 97 +12 +12 1020.4 1012.7
04 25.06 С 2 15 км н/о +12.5 +12.0 97 +11 +11 1020.2 1012.4
05 25.06 СЗ 3 15 км н/о +12.7 +12.3 97 +11 +11 1020.4 1012.7
06 25.06 С 2 17 км н/о +13.1 +12.3 95 +12 +12 1020.9 1013.1 +12.0
07 25.06 СЗ 3 17 км н/о +13.6 +12.6 94 +13 +13 1021.3 1013.5
08 25.06 СЗ 3 12 км дымка н/о +13.8 +13.0 95 +13 +13 1021.6 1013.9
09 25.06 СЗ 3 25 км н/о +14.6 +13.5 93 +14 +14 1021.7 1014.0
10 25.06 СЗ 3 19 км н/о +14.8 +13.7 93 +14 +14 1022.0 1014.3
11 25.06 С 2 19 км н/о +15.9 +14.4 91 +16 +16 1022.8 1015.1
12 25.06 СВ 3 21 км н/о +18.4 +14.6 79 +19 +19 1022.9 1015.2
13 25.06 СВ 2 30 км н/о +18.7 +14.0 74 +20 +20 1023.1 1015.5
14 25.06 В 2 30 км н/о +18.7 +14.1 75 +20 +20 1023.4 1015.7
15 25.06 В 3 35 км н/о +18.6 +14.0 75 +19 +19 1023.9 1016.2
16 25.06 С 2 35 км н/о +19.0 +13.9 72 +21 +21 комфорт 1023.9 1016.3
17 25.06 СЗ 3 27 км н/о +19.0 +15.0 78 +21 +21 комфорт 1024.2 1016.6

 

Местоположение метеостанции Портгленон (Великобритания): широта 54.87 долгота -6.45 высота над уровнем моря 65 м.

В архиве по умолчанию представлена погода в Портгленоне за последнюю неделю. Архивные данные за месяц целиком и за предыдущие месяцы, начиная с января 2011 года, Вы можете получить, выбрав интересующий диапазон дат из раскрывающегося списка и нажав кнопку "Ввод!".


*Определитесь, кто Вы:
робот инопланетянин человек

Внимание! Время в таблицах - всемирное. Для получения местного времени необходимо прибавить поправку, которая равна 0 ч.

Смотрите также архив погоды в соседних городах и на ближайших метеорологических станциях:

Погода в Белфасте (Великобритания) (29 км)
Погода на Озере Lough Fea (Великобритания) (29 км)
Погода в Баллипатрик Форест (Великобритания) (39 км)
Погода на Магиллигане (Великобритания) (44 км)
Погода в Гленане (Великобритания) (71 км)
Погода в Каследерге (Великобритания) (75 км)
Погода в Макрайханише (Великобритания) (78 км)
Погода в Малин Хед (Ирландия) (79 км)
Погода в Порт-Эллене (Великобритания) (91 км)
Погода в Томастауне (Великобритания) (95 км)

Пояснения к столбцам:

Ветер - указаны скорость ветра в м/с - средняя за 10 мин, порывы в срок и между сроками (в фигурных скобках) и направление, откуда дует ветер: С - северный, СВ - северо-восточный, В - восточный, ЮВ - юго-восточный, Ю - южный, ЮЗ - юго-западный, З - западный, СЗ - северо-западный.
Видимость - горизонтальная дальность видимости в метрах или километрах. При видимости от 1 до 10 км при отсутствии осадков обычно наблюдается дымка, при ухудшении видимости до 1 км и менее - туман. В сухую погоду видимость может ухудшаться дымом, пылью или мглою.
Явления - указаны атмосферные явления, наблюдавшиеся в срок или в последний час перед сроком; фигурными скобками обозначены явления, наблюдавшиеся между сроками (за 1-3 часа до срока); квадратными скобками обозначены град или гололедные отложения с указанием их диаметра в мм.
Облачность - указаны через наклонную черту общая и нижняя облачность в баллах и высота нижней границы облаков в метрах; квадратными скобками обозначены формы облаков: Ci - перистые, Cs - перисто-слоистые, Cc - перисто-кучевые, Ac - высококучевые, As - высокослоистые, Sc - слоисто-кучевые, Ns - слоисто-дождевые, Cu - кучевые, Cb - кучево-дождевые. Подробнее классификацию облаков см. в Атласе облаков (PDF).
T - Температура воздуха - температура, измеренная на высоте 2 м над землей.
Td - Температура точки росы - температура, при понижении до которой содержащийся в воздухе водяной пар достигнет насыщения.
f - Относительная влажность воздуха - влажноcть воздуха, измеренная на высоте 2 м над землей.
Te - Эффективная температура - температура, которую ощущает одетый по сезону человек в тени. Характеристика душности погоды. При расчете учитывается влияние влажности воздуха и скорости ветра на теплоощущения человека.
Tes - Эффективная температура на солнце - температура, которую ощущает человек, с поправкой на солнечный нагрев. Характеристика знойности погоды. Зависит от высоты солнца над горизонтом, облачности и скорости ветра. Ночью, в пасмурную погоду, а также при ветре 12 м/с и более поправка равна нулю.
P - Атмосферное давление - приведенное к уровню моря атмосферное давление.
Po - Атмосферное давление - измеренное на уровне метеостанции атмосферное давление.
Tmin - Минимальная температура - минимум температуры воздуха на высоте 2 м над землей.
Tmax - Максимальная температура - максимум температуры воздуха на высоте 2 м над землей.
R - Количество осадков - Количество выпавших осадков за период времени, мм. При наведении курсора мыши на число - период времени, за который выпало указанное количество осадков.
R24 - Количество осадков - Количество выпавших осадков за 24 часа, мм.
S - Снежный покров - Высота снежного покрова, см. При наведении курсора мыши на число - состояние снежного покрова и степень покрытия местности в баллах.